Time,TemperatureF,DewpointF,PressureIn,WindDirection,WindDirectionDegrees,WindSpeedMPH,WindSpeedGustMPH,Humidity,HourlyPrecipIn,Conditions,Clouds,dailyrainin,SoftwareType,DateUTC
2013-02-25 00:01:00,42.9,36.5,30.22,SE,132,0.0,2.0,78,0.00,,,0.00,Wunderground v.1.12,2013-02-25 08:01:00,
2013-02-25 00:06:00,42.9,36.5,30.22,SE,133,0.0,1.0,78,0.00,,,0.00,Wunderground v.1.12,2013-02-25 08:06:00,
2013-02-25 00:11:00,42.7,36.3,30.22,SE,133,0.0,1.0,78,0.00,,,0.00,Wunderground v.1.12,2013-02-25 08:11:00,
2013-02-25 00:16:00,41.7,35.3,30.21,SE,133,0.0,0.0,78,0.00,,,0.00,Wunderground v.1.12,2013-02-25 08:16:00,
2013-02-25 00:21:00,41.2,35.5,30.21,SE,133,0.0,0.0,80,0.00,,,0.00,Wunderground v.1.12,2013-02-25 08:21:00,
2013-02-25 00:26:00,41.0,35.9,30.21,SE,133,0.0,0.0,82,0.00,,,0.00,Wunderground v.1.12,2013-02-25 08:26:00,
2013-02-25 00:31:00,40.9,35.5,30.22,SE,133,0.0,0.0,81,0.00,,,0.00,Wunderground v.1.12,2013-02-25 08:31:00,
2013-02-25 00:36:00,40.5,35.4,30.22,SE,133,0.0,0.0,82,0.00,,,0.00,Wunderground v.1.12,2013-02-25 08:36:00,
2013-02-25 00:42:00,39.9,34.9,30.22,SE,133,0.0,0.0,82,0.00,,,0.00,Wunderground v.1.12,2013-02-25 08:42:00,
2013-02-25 00:47:00,39.3,34.6,30.22,SE,133,0.0,0.0,83,0.00,,,0.00,Wunderground v.1.12,2013-02-25 08:47:00,
2013-02-25 00:52:00,38.9,34.8,30.22,SE,133,0.0,0.0,85,0.00,,,0.00,Wunderground v.1.12,2013-02-25 08:52:00,
2013-02-25 00:57:00,38.9,34.8,30.22,SE,133,0.0,0.0,85,0.00,,,0.00,Wunderground v.1.12,2013-02-25 08:57:00,
2013-02-25 01:02:00,38.6,34.5,30.22,SE,133,0.0,0.0,85,0.00,,,0.00,Wunderground v.1.12,2013-02-25 09:02:00,
2013-02-25 01:07:00,38.5,34.7,30.22,SE,133,0.0,0.0,86,0.00,,,0.00,Wunderground v.1.12,2013-02-25 09:07:00,
2013-02-25 01:12:00,38.6,34.8,30.22,SE,133,0.0,0.0,86,0.00,,,0.00,Wunderground v.1.12,2013-02-25 09:12:00,
2013-02-25 01:18:00,38.5,35.0,30.22,SE,133,0.0,2.0,87,0.00,,,0.00,Wunderground v.1.12,2013-02-25 09:18:00,
2013-02-25 01:24:00,39.1,35.6,30.22,SE,133,0.0,0.0,87,0.00,,,0.00,Wunderground v.1.12,2013-02-25 09:24:00,
2013-02-25 01:30:00,39.3,35.2,30.22,SE,133,0.0,0.0,85,0.00,,,0.00,Wunderground v.1.12,2013-02-25 09:30:00,
2013-02-25 01:35:00,39.5,35.4,30.22,SE,133,0.0,0.0,85,0.00,,,0.00,Wunderground v.1.12,2013-02-25 09:35:00,
2013-02-25 01:41:00,39.0,34.9,30.22,SE,133,0.0,0.0,85,0.00,,,0.00,Wunderground v.1.12,2013-02-25 09:41:00,
2013-02-25 01:46:00,38.5,34.4,30.22,SE,133,0.0,0.0,85,0.00,,,0.00,Wunderground v.1.12,2013-02-25 09:46:00,
2013-02-25 01:51:00,38.1,34.6,30.22,SE,133,0.0,1.0,87,0.00,,,0.00,Wunderground v.1.12,2013-02-25 09:51:00,
2013-02-25 01:56:00,38.0,34.5,30.22,SE,133,0.0,0.0,87,0.00,,,0.00,Wunderground v.1.12,2013-02-25 09:56:00,
2013-02-25 02:01:00,37.9,34.9,30.23,SE,133,0.0,0.0,89,0.00,,,0.00,Wunderground v.1.12,2013-02-25 10:01:00,
2013-02-25 02:06:00,38.1,35.1,30.23,SE,133,0.0,0.0,89,0.00,,,0.00,Wunderground v.1.12,2013-02-25 10:06:00,
2013-02-25 02:12:00,38.1,34.9,30.23,SE,133,0.0,0.0,88,0.00,,,0.00,Wunderground v.1.12,2013-02-25 10:12:00,
2013-02-25 02:17:00,37.6,34.1,30.23,SE,133,0.0,0.0,87,0.00,,,0.00,Wunderground v.1.12,2013-02-25 10:17:00,
2013-02-25 02:22:00,37.2,34.0,30.23,SE,133,0.0,0.0,88,0.00,,,0.00,Wunderground v.1.12,2013-02-25 10:22:00,
2013-02-25 02:27:00,37.2,34.3,30.23,SE,133,0.0,1.0,89,0.00,,,0.00,Wunderground v.1.12,2013-02-25 10:27:00,
2013-02-25 02:32:00,37.4,34.7,30.23,SE,134,1.0,1.0,90,0.00,,,0.00,Wunderground v.1.12,2013-02-25 10:32:00,
2013-02-25 02:37:00,38.1,35.1,30.23,SSE,154,0.0,0.0,89,0.00,,,0.00,Wunderground v.1.12,2013-02-25 10:37:00,
2013-02-25 02:42:00,37.8,34.6,30.23,SSE,154,0.0,0.0,88,0.00,,,0.00,Wunderground v.1.12,2013-02-25 10:42:00,
2013-02-25 02:47:00,37.9,35.2,30.23,SSE,154,0.0,1.0,90,0.00,,,0.00,Wunderground v.1.12,2013-02-25 10:47:00,
2013-02-25 02:52:00,38.5,35.8,30.23,SSE,153,0.0,1.0,90,0.00,,,0.00,Wunderground v.1.12,2013-02-25 10:52:00,
2013-02-25 02:57:00,39.8,36.5,30.23,South,174,0.0,1.0,88,0.00,,,0.00,Wunderground v.1.12,2013-02-25 10:57:00,
2013-02-25 03:03:00,40.5,36.6,30.22,South,174,1.0,1.0,86,0.00,,,0.00,Wunderground v.1.12,2013-02-25 11:03:00,
2013-02-25 03:08:00,41.7,37.5,30.22,WSW,249,2.0,4.0,85,0.00,,,0.00,Wunderground v.1.12,2013-02-25 11:08:00,
2013-02-25 03:13:00,42.8,38.3,30.22,WSW,249,0.0,2.0,84,0.00,,,0.00,Wunderground v.1.12,2013-02-25 11:13:00,
2013-02-25 03:18:00,43.2,38.4,30.22,SE,144,0.0,1.0,83,0.00,,,0.00,Wunderground v.1.12,2013-02-25 11:18:00,
2013-02-25 03:23:00,43.3,38.5,30.22,SSE,156,1.0,2.0,83,0.00,,,0.00,Wunderground v.1.12,2013-02-25 11:23:00,
2013-02-25 03:28:00,43.6,38.5,30.22,SSE,157,0.0,2.0,82,0.00,,,0.00,Wunderground v.1.12,2013-02-25 11:28:00,
2013-02-25 03:33:00,43.7,38.6,30.20,SSE,157,0.0,1.0,82,0.00,,,0.00,Wunderground v.1.12,2013-02-25 11:33:00,
2013-02-25 03:38:00,43.7,38.6,30.20,SSE,165,0.0,2.0,82,0.00,,,0.00,Wunderground v.1.12,2013-02-25 11:38:00,
2013-02-25 03:44:00,43.6,38.2,30.20,SE,138,1.0,2.0,81,0.00,,,0.00,Wunderground v.1.12,2013-02-25 11:44:00,
2013-02-25 03:49:00,43.5,37.7,30.20,SE,139,1.0,2.0,80,0.00,,,0.00,Wunderground v.1.12,2013-02-25 11:49:00,
2013-02-25 03:54:00,43.1,37.3,30.20,SE,140,2.0,2.0,80,0.00,,,0.00,Wunderground v.1.12,2013-02-25 11:54:00,
2013-02-25 03:59:00,42.7,37.0,30.20,South,170,2.0,3.0,80,0.00,,,0.00,Wunderground v.1.12,2013-02-25 11:59:00,
2013-02-25 04:04:00,42.5,37.1,30.20,ESE,121,0.0,2.0,81,0.00,,,0.00,Wunderground v.1.12,2013-02-25 12:04:00,
2013-02-25 04:09:00,42.2,37.1,30.20,SSE,159,2.0,3.0,82,0.00,,,0.00,Wunderground v.1.12,2013-02-25 12:09:00,
2013-02-25 04:14:00,42.2,37.1,30.20,SSE,150,1.0,2.0,82,0.00,,,0.00,Wunderground v.1.12,2013-02-25 12:14:00,
2013-02-25 04:19:00,42.4,37.3,30.20,SE,142,1.0,3.0,82,0.00,,,0.00,Wunderground v.1.12,2013-02-25 12:19:00,
2013-02-25 04:25:00,42.4,37.0,30.20,SSE,167,1.0,2.0,81,0.00,,,0.00,Wunderground v.1.12,2013-02-25 12:25:00,
2013-02-25 04:30:00,42.2,37.1,30.20,SSE,157,1.0,2.0,82,0.00,,,0.00,Wunderground v.1.12,2013-02-25 12:30:00,
2013-02-25 04:35:00,42.4,37.3,30.20,SSE,165,1.0,2.0,82,0.00,,,0.00,Wunderground v.1.12,2013-02-25 12:35:00,
2013-02-25 04:40:00,42.4,37.3,30.20,SSE,165,0.0,1.0,82,0.00,,,0.00,Wunderground v.1.12,2013-02-25 12:40:00,
2013-02-25 04:45:00,42.4,37.6,30.20,South,169,2.0,2.0,83,0.00,,,0.00,Wunderground v.1.12,2013-02-25 12:45:00,
2013-02-25 04:50:00,42.6,37.5,30.20,SE,136,1.0,1.0,82,0.00,,,0.00,Wunderground v.1.12,2013-02-25 12:50:00,
2013-02-25 04:55:00,42.6,37.5,30.20,SSE,150,2.0,2.0,82,0.00,,,0.00,Wunderground v.1.12,2013-02-25 12:55:00,
2013-02-25 05:00:00,42.5,37.4,30.21,SE,141,1.0,2.0,82,0.00,,,0.00,Wunderground v.1.12,2013-02-25 13:00:00,
2013-02-25 05:05:00,42.4,37.3,30.21,SSE,161,0.0,2.0,82,0.00,,,0.00,Wunderground v.1.12,2013-02-25 13:05:00,
2013-02-25 05:10:00,42.2,37.4,30.21,SE,126,0.0,1.0,83,0.00,,,0.00,Wunderground v.1.12,2013-02-25 13:10:00,
2013-02-25 05:15:00,42.1,37.3,30.22,SE,133,0.0,1.0,83,0.00,,,0.00,Wunderground v.1.12,2013-02-25 13:15:00,
2013-02-25 05:20:00,41.9,37.1,30.22,SE,133,0.0,1.0,83,0.00,,,0.00,Wunderground v.1.12,2013-02-25 13:20:00,
2013-02-25 05:26:00,41.6,37.1,30.22,SE,133,0.0,0.0,84,0.00,,,0.00,Wunderground v.1.12,2013-02-25 13:26:00,
2013-02-25 05:31:00,41.3,36.8,30.23,SE,133,0.0,0.0,84,0.00,,,0.00,Wunderground v.1.12,2013-02-25 13:31:00,
2013-02-25 05:36:00,40.8,36.6,30.23,SE,133,0.0,0.0,85,0.00,,,0.00,Wunderground v.1.12,2013-02-25 13:36:00,
2013-02-25 05:41:00,40.3,36.1,30.23,SE,133,0.0,0.0,85,0.00,,,0.00,Wunderground v.1.12,2013-02-25 13:41:00,
2013-02-25 05:46:00,39.9,35.8,30.23,SE,133,0.0,1.0,85,0.00,,,0.00,Wunderground v.1.12,2013-02-25 13:46:00,
2013-02-25 05:51:00,39.6,35.8,30.23,South,178,0.0,1.0,86,0.00,,,0.00,Wunderground v.1.12,2013-02-25 13:51:00,
2013-02-25 05:56:00,39.7,35.3,30.23,South,178,1.0,1.0,84,0.00,,,0.00,Wunderground v.1.12,2013-02-25 13:56:00,
2013-02-25 06:02:00,40.5,35.4,30.23,West,279,1.0,2.0,82,0.00,,,0.00,Wunderground v.1.12,2013-02-25 14:02:00,
2013-02-25 06:07:00,41.2,35.2,30.23,SE,133,1.0,1.0,79,0.00,,,0.00,Wunderground v.1.12,2013-02-25 14:07:00,
2013-02-25 06:12:00,42.1,35.4,30.23,South,174,0.0,1.0,77,0.00,,,0.00,Wunderground v.1.12,2013-02-25 14:12:00,
2013-02-25 06:18:00,42.9,35.5,30.24,SE,136,0.0,2.0,75,0.00,,,0.00,Wunderground v.1.12,2013-02-25 14:18:00,
2013-02-25 06:23:00,43.3,35.2,30.24,SE,136,0.0,3.0,73,0.00,,,0.00,Wunderground v.1.12,2013-02-25 14:23:00,
2013-02-25 06:28:00,43.6,35.5,30.24,ESE,108,0.0,3.0,73,0.00,,,0.00,Wunderground v.1.12,2013-02-25 14:28:00,
2013-02-25 06:33:00,43.5,35.1,30.24,SSE,148,0.0,1.0,72,0.00,,,0.00,Wunderground v.1.12,2013-02-25 14:33:00,
2013-02-25 06:38:00,43.3,34.9,30.24,SE,146,0.0,1.0,72,0.00,,,0.00,Wunderground v.1.12,2013-02-25 14:38:00,
2013-02-25 06:43:00,43.0,34.9,30.24,SE,146,0.0,0.0,73,0.00,,,0.00,Wunderground v.1.12,2013-02-25 14:43:00,
2013-02-25 06:48:00,42.5,34.8,30.24,ESE,109,0.0,2.0,74,0.00,,,0.00,Wunderground v.1.12,2013-02-25 14:48:00,
2013-02-25 06:53:00,42.4,34.7,30.24,ESE,109,0.0,1.0,74,0.00,,,0.00,Wunderground v.1.12,2013-02-25 14:53:00,
2013-02-25 06:58:00,42.3,34.6,30.24,ESE,109,0.0,0.0,74,0.00,,,0.00,Wunderground v.1.12,2013-02-25 14:58:00,
2013-02-25 07:04:00,42.1,34.7,30.24,ESE,109,0.0,0.0,75,0.00,,,0.00,Wunderground v.1.12,2013-02-25 15:04:00,
2013-02-25 07:09:00,42.3,34.9,30.24,ESE,110,1.0,1.0,75,0.00,,,0.00,Wunderground v.1.12,2013-02-25 15:09:00,
2013-02-25 07:14:00,42.8,35.1,30.24,ESE,109,2.0,2.0,74,0.00,,,0.00,Wunderground v.1.12,2013-02-25 15:14:00,
2013-02-25 07:19:00,42.9,35.2,30.24,ESE,109,0.0,1.0,74,0.00,,,0.00,Wunderground v.1.12,2013-02-25 15:19:00,
2013-02-25 07:24:00,43.0,35.3,30.24,ESE,109,0.0,1.0,74,0.00,,,0.00,Wunderground v.1.12,2013-02-25 15:24:00,
2013-02-25 07:29:00,43.0,35.3,30.24,ESE,109,1.0,1.0,74,0.00,,,0.00,Wunderground v.1.12,2013-02-25 15:29:00,
2013-02-25 07:34:00,43.2,35.8,30.25,ESE,109,0.0,1.0,75,0.00,,,0.00,Wunderground v.1.12,2013-02-25 15:34:00,
2013-02-25 07:39:00,43.1,36.0,30.25,ESE,109,0.0,1.0,76,0.00,,,0.00,Wunderground v.1.12,2013-02-25 15:39:00,
2013-02-25 07:44:00,42.8,36.1,30.25,ESE,109,0.0,0.0,77,0.00,,,0.00,Wunderground v.1.12,2013-02-25 15:44:00,
2013-02-25 07:49:00,43.0,36.3,30.24,ESE,109,0.0,0.0,77,0.00,,,0.00,Wunderground v.1.12,2013-02-25 15:49:00,
2013-02-25 07:54:00,43.9,36.8,30.24,West,268,0.0,1.0,76,0.00,,,0.00,Wunderground v.1.12,2013-02-25 15:54:00,
2013-02-25 08:00:00,45.4,37.9,30.24,South,172,2.0,2.0,75,0.00,,,0.00,Wunderground v.1.12,2013-02-25 16:00:00,
2013-02-25 08:05:00,46.7,37.8,30.24,ESE,108,2.0,2.0,71,0.00,,,0.00,Wunderground v.1.12,2013-02-25 16:05:00,
2013-02-25 08:10:00,47.6,37.6,30.24,ESE,123,1.0,2.0,68,0.00,,,0.00,Wunderground v.1.12,2013-02-25 16:10:00,
2013-02-25 08:15:00,48.3,37.8,30.24,ENE,78,1.0,2.0,67,0.00,,,0.00,Wunderground v.1.12,2013-02-25 16:15:00,
2013-02-25 08:20:00,49.1,38.2,30.24,ENE,69,3.0,3.0,66,0.00,,,0.00,Wunderground v.1.12,2013-02-25 16:20:00,
2013-02-25 08:25:00,50.1,38.4,30.24,East,101,2.0,3.0,64,0.00,,,0.00,Wunderground v.1.12,2013-02-25 16:25:00,
2013-02-25 08:31:00,50.4,38.3,30.24,ENE,78,1.0,2.0,63,0.00,,,0.00,Wunderground v.1.12,2013-02-25 16:31:00,
2013-02-25 08:36:00,50.7,38.1,30.24,SSE,153,2.0,3.0,62,0.00,,,0.00,Wunderground v.1.12,2013-02-25 16:36:00,
2013-02-25 08:41:00,51.3,38.3,30.24,NE,35,5.0,5.0,61,0.00,,,0.00,Wunderground v.1.12,2013-02-25 16:41:00,
2013-02-25 08:46:00,51.8,38.8,30.23,SE,125,0.0,7.0,61,0.00,,,0.00,Wunderground v.1.12,2013-02-25 16:46:00,
2013-02-25 08:51:00,51.8,38.8,30.23,East,85,1.0,3.0,61,0.00,,,0.00,Wunderground v.1.12,2013-02-25 16:51:00,
2013-02-25 08:56:00,52.0,39.0,30.23,East,98,3.0,5.0,61,0.00,,,0.00,Wunderground v.1.12,2013-02-25 16:56:00,
2013-02-25 09:01:00,52.7,39.2,30.23,ENE,78,1.0,7.0,60,0.00,,,0.00,Wunderground v.1.12,2013-02-25 17:01:00,
2013-02-25 09:06:00,53.0,39.5,30.23,East,100,0.0,2.0,60,0.00,,,0.00,Wunderground v.1.12,2013-02-25 17:06:00,
2013-02-25 09:11:00,53.7,40.1,30.23,ESE,115,2.0,2.0,60,0.00,,,0.00,Wunderground v.1.12,2013-02-25 17:11:00,
2013-02-25 09:17:00,54.0,40.0,30.23,SSE,163,2.0,10.0,59,0.00,,,0.00,Wunderground v.1.12,2013-02-25 17:17:00,
2013-02-25 09:22:00,54.2,40.2,30.23,SE,145,4.0,4.0,59,0.00,,,0.00,Wunderground v.1.12,2013-02-25 17:22:00,
2013-02-25 09:27:00,54.6,40.6,30.23,ESE,109,2.0,5.0,59,0.00,,,0.00,Wunderground v.1.12,2013-02-25 17:27:00,
2013-02-25 09:32:00,55.2,40.7,30.23,NE,53,7.0,7.0,58,0.00,,,0.00,Wunderground v.1.12,2013-02-25 17:32:00,
2013-02-25 09:37:00,55.6,41.0,30.23,SSE,154,1.0,3.0,58,0.00,,,0.00,Wunderground v.1.12,2013-02-25 17:37:00,
2013-02-25 09:42:00,56.1,41.1,30.23,NNE,30,3.0,6.0,57,0.00,,,0.00,Wunderground v.1.12,2013-02-25 17:42:00,
2013-02-25 09:47:00,56.6,41.1,30.22,ENE,66,3.0,12.0,56,0.00,,,0.00,Wunderground v.1.12,2013-02-25 17:47:00,
2013-02-25 09:52:00,56.3,40.3,30.22,ESE,109,2.0,10.0,55,0.00,,,0.00,Wunderground v.1.12,2013-02-25 17:52:00,
2013-02-25 09:57:00,56.2,40.7,30.22,SE,143,6.0,13.0,56,0.00,,,0.00,Wunderground v.1.12,2013-02-25 17:57:00,
2013-02-25 10:02:00,56.6,41.1,30.22,SSE,159,1.0,9.0,56,0.00,,,0.00,Wunderground v.1.12,2013-02-25 18:02:00,
2013-02-25 10:07:00,57.3,41.7,30.22,East,88,1.0,4.0,56,0.00,,,0.00,Wunderground v.1.12,2013-02-25 18:07:00,
2013-02-25 10:13:00,57.3,41.3,30.22,SE,139,10.0,12.0,55,0.00,,,0.00,Wunderground v.1.12,2013-02-25 18:13:00,
2013-02-25 10:18:00,57.8,41.7,30.22,South,172,4.0,9.0,55,0.00,,,0.00,Wunderground v.1.12,2013-02-25 18:18:00,
2013-02-25 10:23:00,57.8,41.3,30.22,East,92,3.0,11.0,54,0.00,,,0.00,Wunderground v.1.12,2013-02-25 18:23:00,
2013-02-25 10:28:00,58.3,41.7,30.22,NE,53,5.0,11.0,54,0.00,,,0.00,Wunderground v.1.12,2013-02-25 18:28:00,
2013-02-25 10:33:00,58.5,40.9,30.22,East,88,8.0,11.0,52,0.00,,,0.00,Wunderground v.1.12,2013-02-25 18:33:00,
2013-02-25 10:38:00,58.5,40.9,30.22,South,179,3.0,12.0,52,0.00,,,0.00,Wunderground v.1.12,2013-02-25 18:38:00,
2013-02-25 10:43:00,58.8,40.7,30.22,ESE,109,12.0,13.0,51,0.00,,,0.00,Wunderground v.1.12,2013-02-25 18:43:00,
2013-02-25 10:48:00,59.0,40.4,30.22,ESE,109,6.0,16.0,50,0.00,,,0.00,Wunderground v.1.12,2013-02-25 18:48:00,
2013-02-25 10:53:00,59.4,40.2,30.22,SE,134,3.0,9.0,49,0.00,,,0.00,Wunderground v.1.12,2013-02-25 18:53:00,
2013-02-25 10:59:00,59.7,40.0,30.22,South,190,4.0,16.0,48,0.00,,,0.00,Wunderground v.1.12,2013-02-25 18:59:00,
2013-02-25 11:04:00,60.0,39.7,30.22,South,191,2.0,13.0,47,0.00,,,0.00,Wunderground v.1.12,2013-02-25 19:04:00,
2013-02-25 11:09:00,60.1,39.2,30.22,SSE,156,10.0,13.0,46,0.00,,,0.00,Wunderground v.1.12,2013-02-25 19:09:00,
2013-02-25 11:14:00,60.5,38.5,30.22,NE,51,3.0,12.0,44,0.00,,,0.00,Wunderground v.1.12,2013-02-25 19:14:00,
2013-02-25 11:19:00,60.9,39.4,30.22,ESE,102,11.0,11.0,45,0.00,,,0.00,Wunderground v.1.12,2013-02-25 19:19:00,
2013-02-25 11:24:00,61.3,39.2,30.22,SE,136,3.0,9.0,44,0.00,,,0.00,Wunderground v.1.12,2013-02-25 19:24:00,
2013-02-25 11:29:00,62.0,38.6,30.22,SE,131,2.0,9.0,42,0.00,,,0.00,Wunderground v.1.12,2013-02-25 19:29:00,
2013-02-25 11:34:00,61.6,37.7,30.21,SE,134,2.0,11.0,41,0.00,,,0.00,Wunderground v.1.12,2013-02-25 19:34:00,
2013-02-25 11:39:00,61.6,38.3,30.21,SSE,158,3.0,12.0,42,0.00,,,0.00,Wunderground v.1.12,2013-02-25 19:39:00,
2013-02-25 11:44:00,61.8,37.8,30.21,SSE,156,5.0,11.0,41,0.00,,,0.00,Wunderground v.1.12,2013-02-25 19:44:00,
2013-02-25 11:49:00,62.8,38.1,30.20,East,93,1.0,9.0,40,0.00,,,0.00,Wunderground v.1.12,2013-02-25 19:49:00,
2013-02-25 11:54:00,63.1,36.4,30.20,South,187,8.0,10.0,37,0.00,,,0.00,Wunderground v.1.12,2013-02-25 19:54:00,
2013-02-25 12:00:00,63.1,36.4,30.20,SE,126,5.0,5.0,37,0.00,,,0.00,Wunderground v.1.12,2013-02-25 20:00:00,
2013-02-25 12:05:00,63.4,36.0,30.20,ESE,113,7.0,7.0,36,0.00,,,0.00,Wunderground v.1.12,2013-02-25 20:05:00,
2013-02-25 12:10:00,63.2,36.5,30.20,ENE,76,1.0,4.0,37,0.00,,,0.00,Wunderground v.1.12,2013-02-25 20:10:00,
2013-02-25 12:15:00,64.0,36.5,30.20,SSE,165,1.0,3.0,36,0.00,,,0.00,Wunderground v.1.12,2013-02-25 20:15:00,
2013-02-25 12:20:00,64.3,36.8,30.20,ENE,76,4.0,7.0,36,0.00,,,0.00,Wunderground v.1.12,2013-02-25 20:20:00,
2013-02-25 12:26:00,64.4,36.1,30.20,East,92,2.0,4.0,35,0.00,,,0.00,Wunderground v.1.12,2013-02-25 20:26:00,
2013-02-25 12:31:00,64.5,35.5,30.19,ENE,77,10.0,10.0,34,0.00,,,0.00,Wunderground v.1.12,2013-02-25 20:31:00,
2013-02-25 12:36:00,64.8,35.8,30.19,South,180,3.0,4.0,34,0.00,,,0.00,Wunderground v.1.12,2013-02-25 20:36:00,
2013-02-25 12:41:00,65.5,34.8,30.19,ESE,103,2.0,8.0,32,0.00,,,0.00,Wunderground v.1.12,2013-02-25 20:41:00,
2013-02-25 12:46:00,65.5,35.6,30.18,NE,46,1.0,6.0,33,0.00,,,0.00,Wunderground v.1.12,2013-02-25 20:46:00,
2013-02-25 12:51:00,65.4,34.8,30.18,SSE,149,5.0,9.0,32,0.00,,,0.00,Wunderground v.1.12,2013-02-25 20:51:00,
2013-02-25 12:56:00,65.8,34.3,30.18,NNE,29,1.0,7.0,31,0.00,,,0.00,Wunderground v.1.12,2013-02-25 20:56:00,
2013-02-25 13:01:00,66.1,32.0,30.18,SE,132,1.0,13.0,28,0.00,,,0.00,Wunderground v.1.12,2013-02-25 21:01:00,
2013-02-25 13:06:00,66.3,32.2,30.18,SE,146,2.0,3.0,28,0.00,,,0.00,Wunderground v.1.12,2013-02-25 21:06:00,
2013-02-25 13:11:00,66.3,31.3,30.18,ESE,114,2.0,4.0,27,0.00,,,0.00,Wunderground v.1.12,2013-02-25 21:11:00,
2013-02-25 13:16:00,66.6,31.5,30.17,NNE,33,5.0,6.0,27,0.00,,,0.00,Wunderground v.1.12,2013-02-25 21:16:00,
2013-02-25 13:21:00,66.7,29.7,30.17,ESE,122,2.0,10.0,25,0.00,,,0.00,Wunderground v.1.12,2013-02-25 21:21:00,
2013-02-25 13:26:00,66.4,27.4,30.17,SE,131,1.0,6.0,23,0.00,,,0.00,Wunderground v.1.12,2013-02-25 21:26:00,
2013-02-25 13:31:00,66.4,29.5,30.17,East,95,2.0,13.0,25,0.00,,,0.00,Wunderground v.1.12,2013-02-25 21:31:00,
2013-02-25 13:36:00,66.6,24.2,30.17,East,100,4.0,13.0,20,0.00,,,0.00,Wunderground v.1.12,2013-02-25 21:36:00,
2013-02-25 13:41:00,66.6,24.2,30.17,SE,126,6.0,11.0,20,0.00,,,0.00,Wunderground v.1.12,2013-02-25 21:41:00,
2013-02-25 13:46:00,66.6,21.7,30.16,East,91,5.0,9.0,18,0.00,,,0.00,Wunderground v.1.12,2013-02-25 21:46:00,
2013-02-25 13:51:00,66.7,20.5,30.16,South,179,3.0,5.0,17,0.00,,,0.00,Wunderground v.1.12,2013-02-25 21:51:00,
2013-02-25 13:56:00,66.6,20.4,30.16,SE,138,3.0,9.0,17,0.00,,,0.00,Wunderground v.1.12,2013-02-25 21:56:00,
2013-02-25 14:01:00,66.2,20.0,30.16,ESE,118,5.0,17.0,17,0.00,,,0.00,Wunderground v.1.12,2013-02-25 22:01:00,
2013-02-25 14:07:00,66.1,21.3,30.16,ENE,68,3.0,14.0,18,0.00,,,0.00,Wunderground v.1.12,2013-02-25 22:07:00,
2013-02-25 14:12:00,66.2,22.7,30.16,SSW,200,2.0,7.0,19,0.00,,,0.00,Wunderground v.1.12,2013-02-25 22:12:00,
2013-02-25 14:17:00,66.5,22.9,30.16,SSE,152,2.0,9.0,19,0.00,,,0.00,Wunderground v.1.12,2013-02-25 22:17:00,
2013-02-25 14:22:00,66.5,22.9,30.16,ESE,113,4.0,7.0,19,0.00,,,0.00,Wunderground v.1.12,2013-02-25 22:22:00,
2013-02-25 14:28:00,66.3,21.5,30.16,SSW,195,2.0,11.0,18,0.00,,,0.00,Wunderground v.1.12,2013-02-25 22:28:00,
2013-02-25 14:33:00,66.1,22.6,30.16,South,179,3.0,14.0,19,0.00,,,0.00,Wunderground v.1.12,2013-02-25 22:33:00,
2013-02-25 14:38:00,66.4,22.8,30.16,SE,140,5.0,12.0,19,0.00,,,0.00,Wunderground v.1.12,2013-02-25 22:38:00,
2013-02-25 14:43:00,66.4,22.8,30.16,SSW,194,2.0,7.0,19,0.00,,,0.00,Wunderground v.1.12,2013-02-25 22:43:00,
2013-02-25 14:49:00,66.6,23.0,30.16,SSE,168,1.0,7.0,19,0.00,,,0.00,Wunderground v.1.12,2013-02-25 22:49:00,
2013-02-25 14:54:00,66.6,20.4,30.16,ESE,111,2.0,10.0,17,0.00,,,0.00,Wunderground v.1.12,2013-02-25 22:54:00,
2013-02-25 14:59:00,66.6,23.0,30.16,South,191,4.0,13.0,19,0.00,,,0.00,Wunderground v.1.12,2013-02-25 22:59:00,
2013-02-25 15:04:00,66.5,22.9,30.16,SE,142,3.0,8.0,19,0.00,,,0.00,Wunderground v.1.12,2013-02-25 23:04:00,
2013-02-25 15:10:00,66.4,21.6,30.16,ESE,106,4.0,4.0,18,0.00,,,0.00,Wunderground v.1.12,2013-02-25 23:10:00,
2013-02-25 15:15:00,66.4,21.6,30.16,NE,49,4.0,5.0,18,0.00,,,0.00,Wunderground v.1.12,2013-02-25 23:15:00,
2013-02-25 15:20:00,66.4,21.6,30.15,ESE,117,5.0,5.0,18,0.00,,,0.00,Wunderground v.1.12,2013-02-25 23:20:00,
2013-02-25 15:25:00,66.2,21.4,30.15,SE,145,2.0,3.0,18,0.00,,,0.00,Wunderground v.1.12,2013-02-25 23:25:00,
2013-02-25 15:30:00,66.1,21.3,30.15,SSE,156,5.0,5.0,18,0.00,,,0.00,Wunderground v.1.12,2013-02-25 23:30:00,
2013-02-25 15:35:00,66.0,22.5,30.14,East,100,2.0,3.0,19,0.00,,,0.00,Wunderground v.1.12,2013-02-25 23:35:00,
2013-02-25 15:40:00,66.0,23.7,30.14,East,92,4.0,4.0,20,0.00,,,0.00,Wunderground v.1.12,2013-02-25 23:40:00,
2013-02-25 15:46:00,66.0,19.9,30.14,South,176,3.0,4.0,17,0.00,,,0.00,Wunderground v.1.12,2013-02-25 23:46:00,
2013-02-25 15:51:00,65.8,19.7,30.14,East,92,1.0,2.0,17,0.00,,,0.00,Wunderground v.1.12,2013-02-25 23:51:00,
2013-02-25 15:56:00,65.7,21.0,30.14,NW,309,2.0,4.0,18,0.00,,,0.00,Wunderground v.1.12,2013-02-25 23:56:00,
2013-02-25 16:01:00,65.6,20.9,30.13,SE,144,7.0,7.0,18,0.00,,,0.00,Wunderground v.1.12,2013-02-26 00:01:00,
2013-02-25 16:06:00,65.6,19.6,30.13,SE,126,4.0,4.0,17,0.00,,,0.00,Wunderground v.1.12,2013-02-26 00:06:00,
2013-02-25 16:11:00,65.5,20.8,30.13,SE,137,2.0,3.0,18,0.00,,,0.00,Wunderground v.1.12,2013-02-26 00:11:00,
2013-02-25 16:16:00,65.3,19.3,30.13,SW,214,2.0,7.0,17,0.00,,,0.00,Wunderground v.1.12,2013-02-26 00:16:00,
2013-02-25 16:21:00,65.3,19.3,30.13,ESE,111,2.0,6.0,17,0.00,,,0.00,Wunderground v.1.12,2013-02-26 00:21:00,
2013-02-25 16:26:00,65.3,20.7,30.13,East,84,1.0,3.0,18,0.00,,,0.00,Wunderground v.1.12,2013-02-26 00:26:00,
2013-02-25 16:31:00,65.2,19.2,30.13,SE,133,1.0,4.0,17,0.00,,,0.00,Wunderground v.1.12,2013-02-26 00:31:00,
2013-02-25 16:36:00,65.1,19.2,30.13,ESE,115,3.0,10.0,17,0.00,,,0.00,Wunderground v.1.12,2013-02-26 00:36:00,
2013-02-25 16:41:00,64.9,19.0,30.13,ESE,105,1.0,4.0,17,0.00,,,0.00,Wunderground v.1.12,2013-02-26 00:41:00,
2013-02-25 16:46:00,64.7,18.8,30.13,SSW,210,1.0,4.0,17,0.00,,,0.00,Wunderground v.1.12,2013-02-26 00:46:00,
2013-02-25 16:51:00,64.6,17.3,30.13,SE,131,3.0,6.0,16,0.00,,,0.00,Wunderground v.1.12,2013-02-26 00:51:00,
2013-02-25 16:56:00,64.4,18.6,30.13,SE,132,1.0,3.0,17,0.00,,,0.00,Wunderground v.1.12,2013-02-26 00:56:00,
2013-02-25 17:01:00,64.1,19.7,30.12,SSE,150,2.0,6.0,18,0.00,,,0.00,Wunderground v.1.12,2013-02-26 01:01:00,
2013-02-25 17:07:00,64.0,18.3,30.12,SSE,167,1.0,5.0,17,0.00,,,0.00,Wunderground v.1.12,2013-02-26 01:07:00,
2013-02-25 17:12:00,63.8,16.7,30.12,South,190,3.0,4.0,16,0.00,,,0.00,Wunderground v.1.12,2013-02-26 01:12:00,
2013-02-25 17:17:00,63.4,16.4,30.13,ENE,76,5.0,5.0,16,0.00,,,0.00,Wunderground v.1.12,2013-02-26 01:17:00,
2013-02-25 17:22:00,63.3,17.7,30.13,SE,140,0.0,7.0,17,0.00,,,0.00,Wunderground v.1.12,2013-02-26 01:22:00,
2013-02-25 17:27:00,63.1,18.9,30.13,SE,126,1.0,4.0,18,0.00,,,0.00,Wunderground v.1.12,2013-02-26 01:27:00,
2013-02-25 17:32:00,62.7,25.3,30.13,SSE,159,0.0,7.0,24,0.00,,,0.00,Wunderground v.1.12,2013-02-26 01:32:00,
2013-02-25 17:38:00,62.0,27.6,30.13,SSE,165,2.0,3.0,27,0.00,,,0.00,Wunderground v.1.12,2013-02-26 01:38:00,
2013-02-25 17:43:00,61.3,31.2,30.13,SSE,152,2.0,5.0,32,0.00,,,0.00,Wunderground v.1.12,2013-02-26 01:43:00,
2013-02-25 17:48:00,60.7,32.9,30.14,ENE,66,2.0,5.0,35,0.00,,,0.00,Wunderground v.1.12,2013-02-26 01:48:00,
2013-02-25 17:53:00,60.0,34.3,30.14,SSE,153,9.0,9.0,38,0.00,,,0.00,Wunderground v.1.12,2013-02-26 01:53:00,
2013-02-25 17:58:00,59.3,35.0,30.14,ESE,105,5.0,10.0,40,0.00,,,0.00,Wunderground v.1.12,2013-02-26 01:58:00,
2013-02-25 18:03:00,58.7,35.0,30.15,SSE,149,9.0,11.0,41,0.00,,,0.00,Wunderground v.1.12,2013-02-26 02:03:00,
2013-02-25 18:08:00,58.1,35.7,30.15,SSE,151,3.0,4.0,43,0.00,,,0.00,Wunderground v.1.12,2013-02-26 02:08:00,
2013-02-25 18:13:00,57.6,35.8,30.15,SE,145,4.0,9.0,44,0.00,,,0.00,Wunderground v.1.12,2013-02-26 02:13:00,
2013-02-25 18:18:00,57.0,35.9,30.15,SE,135,2.0,3.0,45,0.00,,,0.00,Wunderground v.1.12,2013-02-26 02:18:00,
2013-02-25 18:23:00,56.5,36.0,30.15,South,178,1.0,6.0,46,0.00,,,0.00,Wunderground v.1.12,2013-02-26 02:23:00,
2013-02-25 18:28:00,56.2,36.2,30.15,SE,126,1.0,6.0,47,0.00,,,0.00,Wunderground v.1.12,2013-02-26 02:28:00,
2013-02-25 18:33:00,55.7,36.3,30.16,SSW,210,1.0,3.0,48,0.00,,,0.00,Wunderground v.1.12,2013-02-26 02:33:00,
2013-02-25 18:39:00,55.2,36.4,30.16,East,81,1.0,6.0,49,0.00,,,0.00,Wunderground v.1.12,2013-02-26 02:39:00,
2013-02-25 18:44:00,54.7,35.9,30.16,West,273,1.0,3.0,49,0.00,,,0.00,Wunderground v.1.12,2013-02-26 02:44:00,
2013-02-25 18:49:00,54.1,36.4,30.16,NW,307,1.0,3.0,51,0.00,,,0.00,Wunderground v.1.12,2013-02-26 02:49:00,
2013-02-25 18:54:00,53.6,36.4,30.16,NW,314,0.0,2.0,52,0.00,,,0.00,Wunderground v.1.12,2013-02-26 02:54:00,
2013-02-25 18:59:00,53.0,36.3,30.16,NNW,331,0.0,2.0,53,0.00,,,0.00,Wunderground v.1.12,2013-02-26 02:59:00,
2013-02-25 19:04:00,52.5,35.8,30.16,ENE,64,2.0,4.0,53,0.00,,,0.00,Wunderground v.1.12,2013-02-26 03:04:00,
2013-02-25 19:09:00,52.1,35.9,30.16,ENE,66,1.0,1.0,54,0.00,,,0.00,Wunderground v.1.12,2013-02-26 03:09:00,
2013-02-25 19:14:00,51.8,35.7,30.16,WSW,249,0.0,2.0,54,0.00,,,0.00,Wunderground v.1.12,2013-02-26 03:14:00,
2013-02-25 19:19:00,51.7,35.6,30.17,WSW,242,1.0,3.0,54,0.00,,,0.00,Wunderground v.1.12,2013-02-26 03:19:00,
2013-02-25 19:25:00,51.8,35.7,30.17,NW,309,2.0,4.0,54,0.00,,,0.00,Wunderground v.1.12,2013-02-26 03:25:00,
2013-02-25 19:30:00,51.8,35.7,30.17,East,98,1.0,6.0,54,0.00,,,0.00,Wunderground v.1.12,2013-02-26 03:30:00,
2013-02-25 19:35:00,51.8,35.7,30.17,West,281,3.0,6.0,54,0.00,,,0.00,Wunderground v.1.12,2013-02-26 03:35:00,
2013-02-25 19:40:00,51.5,35.9,30.17,NW,308,2.0,2.0,55,0.00,,,0.00,Wunderground v.1.12,2013-02-26 03:40:00,
2013-02-25 19:45:00,51.1,35.5,30.17,WNW,302,1.0,3.0,55,0.00,,,0.00,Wunderground v.1.12,2013-02-26 03:45:00,
2013-02-25 19:50:00,50.6,35.5,30.18,WNW,288,0.0,1.0,56,0.00,,,0.00,Wunderground v.1.12,2013-02-26 03:50:00,
2013-02-25 19:55:00,50.2,35.5,30.18,ESE,102,0.0,1.0,57,0.00,,,0.00,Wunderground v.1.12,2013-02-26 03:55:00,
2013-02-25 20:00:00,49.9,35.3,30.18,NE,46,0.0,1.0,57,0.00,,,0.00,Wunderground v.1.12,2013-02-26 04:00:00,
2013-02-25 20:06:00,49.8,35.2,30.18,NNE,32,1.0,2.0,57,0.00,,,0.00,Wunderground v.1.12,2013-02-26 04:06:00,
2013-02-25 20:11:00,49.7,35.1,30.18,NE,49,1.0,2.0,57,0.00,,,0.00,Wunderground v.1.12,2013-02-26 04:11:00,
2013-02-25 20:16:00,49.7,34.6,30.18,ENE,76,1.0,2.0,56,0.00,,,0.00,Wunderground v.1.12,2013-02-26 04:16:00,
2013-02-25 20:21:00,49.7,34.6,30.18,NNW,335,1.0,2.0,56,0.00,,,0.00,Wunderground v.1.12,2013-02-26 04:21:00,
2013-02-25 20:26:00,49.8,34.7,30.18,ENE,63,0.0,3.0,56,0.00,,,0.00,Wunderground v.1.12,2013-02-26 04:26:00,
2013-02-25 20:31:00,49.8,34.7,30.18,WNW,297,1.0,2.0,56,0.00,,,0.00,Wunderground v.1.12,2013-02-26 04:31:00,
2013-02-25 20:37:00,49.7,34.6,30.18,East,79,1.0,2.0,56,0.00,,,0.00,Wunderground v.1.12,2013-02-26 04:37:00,
2013-02-25 20:42:00,49.6,34.5,30.18,NW,308,2.0,3.0,56,0.00,,,0.00,Wunderground v.1.12,2013-02-26 04:42:00,
2013-02-25 20:46:00,49.5,34.0,30.19,NNW,340,1.0,2.0,55,0.00,,,0.00,Wunderground v.1.12,2013-02-26 04:46:00,
2013-02-25 20:52:00,49.4,34.3,30.19,WSW,242,2.0,3.0,56,0.00,,,0.00,Wunderground v.1.12,2013-02-26 04:52:00,
2013-02-25 20:57:00,49.2,34.2,30.19,NE,53,0.0,4.0,56,0.00,,,0.00,Wunderground v.1.12,2013-02-26 04:57:00,
2013-02-25 21:00:00,49.1,34.1,30.19,NE,52,0.0,4.0,56,0.00,,,0.00,Wunderground v.1.12,2013-02-26 05:00:00,
2013-02-25 21:05:00,48.9,34.3,30.19,WNW,303,2.0,2.0,57,0.00,,,0.00,Wunderground v.1.12,2013-02-26 05:05:00,
2013-02-25 21:10:00,48.8,34.2,30.19,SE,144,0.0,1.0,57,0.00,,,0.00,Wunderground v.1.12,2013-02-26 05:10:00,
2013-02-25 21:15:00,48.6,34.0,30.19,WNW,296,1.0,1.0,57,0.00,,,0.00,Wunderground v.1.12,2013-02-26 05:15:00,
2013-02-25 21:20:00,48.6,34.0,30.18,NNE,31,1.0,1.0,57,0.00,,,0.00,Wunderground v.1.12,2013-02-26 05:20:00,
2013-02-25 21:25:00,48.5,33.9,30.18,SSE,156,1.0,1.0,57,0.00,,,0.00,Wunderground v.1.12,2013-02-26 05:25:00,
2013-02-25 21:30:00,48.3,34.2,30.19,ENE,57,1.0,1.0,58,0.00,,,0.00,Wunderground v.1.12,2013-02-26 05:30:00,
2013-02-25 21:35:00,48.0,34.3,30.19,East,81,1.0,2.0,59,0.00,,,0.00,Wunderground v.1.12,2013-02-26 05:35:00,
2013-02-25 21:40:00,47.7,34.1,30.19,East,88,0.0,1.0,59,0.00,,,0.00,Wunderground v.1.12,2013-02-26 05:40:00,
2013-02-25 21:45:00,47.4,34.2,30.19,East,94,1.0,1.0,60,0.00,,,0.00,Wunderground v.1.12,2013-02-26 05:45:00,
2013-02-25 21:51:00,47.2,34.0,30.19,ENE,63,2.0,2.0,60,0.00,,,0.00,Wunderground v.1.12,2013-02-26 05:51:00,
2013-02-25 21:56:00,47.1,33.9,30.19,SE,133,3.0,5.0,60,0.00,,,0.00,Wunderground v.1.12,2013-02-26 05:56:00,
2013-02-25 22:01:00,47.1,33.9,30.20,NE,56,1.0,2.0,60,0.00,,,0.00,Wunderground v.1.12,2013-02-26 06:01:00,
2013-02-25 22:06:00,47.2,34.0,30.20,East,82,0.0,1.0,60,0.00,,,0.00,Wunderground v.1.12,2013-02-26 06:06:00,
2013-02-25 22:11:00,47.1,34.3,30.20,NE,55,1.0,5.0,61,0.00,,,0.00,Wunderground v.1.12,2013-02-26 06:11:00,
2013-02-25 22:16:00,47.2,34.4,30.20,ESE,113,0.0,2.0,61,0.00,,,0.00,Wunderground v.1.12,2013-02-26 06:16:00,
2013-02-25 22:21:00,47.2,34.4,30.20,SW,215,0.0,2.0,61,0.00,,,0.00,Wunderground v.1.12,2013-02-26 06:21:00,
2013-02-25 22:26:00,47.3,34.5,30.20,ESE,110,2.0,3.0,61,0.00,,,0.00,Wunderground v.1.12,2013-02-26 06:26:00,
2013-02-25 22:31:00,47.3,34.5,30.20,ESE,111,2.0,2.0,61,0.00,,,0.00,Wunderground v.1.12,2013-02-26 06:31:00,
2013-02-25 22:36:00,47.2,34.4,30.20,NW,318,2.0,4.0,61,0.00,,,0.00,Wunderground v.1.12,2013-02-26 06:36:00,
2013-02-25 22:42:00,47.1,34.3,30.20,NNW,331,1.0,2.0,61,0.00,,,0.00,Wunderground v.1.12,2013-02-26 06:42:00,
2013-02-25 22:47:00,46.9,34.6,30.20,NW,304,2.0,4.0,62,0.00,,,0.00,Wunderground v.1.12,2013-02-26 06:47:00,
2013-02-25 22:53:00,46.9,34.1,30.20,SSW,194,1.0,2.0,61,0.00,,,0.00,Wunderground v.1.12,2013-02-26 06:53:00,
2013-02-25 22:58:00,46.9,34.1,30.20,WNW,298,1.0,4.0,61,0.00,,,0.00,Wunderground v.1.12,2013-02-26 06:58:00,
2013-02-25 23:03:00,46.9,34.1,30.20,SSW,194,2.0,4.0,61,0.00,,,0.00,Wunderground v.1.12,2013-02-26 07:03:00,
2013-02-25 23:08:00,46.9,34.1,30.20,East,79,5.0,8.0,61,0.00,,,0.00,Wunderground v.1.12,2013-02-26 07:08:00,
2013-02-25 23:14:00,47.0,34.2,30.20,SSE,157,0.0,9.0,61,0.00,,,0.00,Wunderground v.1.12,2013-02-26 07:14:00,
2013-02-25 23:19:00,47.0,34.2,30.20,SSE,163,0.0,4.0,61,0.00,,,0.00,Wunderground v.1.12,2013-02-26 07:19:00,
2013-02-25 23:24:00,46.7,34.4,30.20,ESE,105,3.0,3.0,62,0.00,,,0.00,Wunderground v.1.12,2013-02-26 07:24:00,
2013-02-25 23:29:00,46.4,34.1,30.20,South,184,2.0,4.0,62,0.00,,,0.00,Wunderground v.1.12,2013-02-26 07:29:00,
2013-02-25 23:34:00,46.4,34.5,30.20,ENE,61,2.0,4.0,63,0.00,,,0.00,Wunderground v.1.12,2013-02-26 07:34:00,
2013-02-25 23:39:00,46.3,34.4,30.20,WNW,289,3.0,4.0,63,0.00,,,0.00,Wunderground v.1.12,2013-02-26 07:39:00,
2013-02-25 23:44:00,46.1,34.6,30.20,NW,316,3.0,4.0,64,0.00,,,0.00,Wunderground v.1.12,2013-02-26 07:44:00,
2013-02-25 23:50:00,45.9,34.4,30.19,East,89,1.0,2.0,64,0.00,,,0.00,Wunderground v.1.12,2013-02-26 07:50:00,
2013-02-25 23:55:00,45.7,34.6,30.19,ENE,59,1.0,2.0,65,0.00,,,0.00,Wunderground v.1.12,2013-02-26 07:55:00,